Regional Weather Roundup
Issued by NWS Midland/Odessa, TX

Skip options and go directly to product.
Home | Oldest Version | Previous Version | Current Version | All | Text Only | Save Text | Print | Product List | Glossary On

Skip product version selection by date and time.   
343
ASUS44 KMAF 200910
RWRMAF
MIDLAND AREA WEATHER ROUNDUP
NATIONAL WEATHER SERVICE MIDLAND TX
400 AM CDT SAT SEP 20 2014

...IN SOUTHWEST TEXAS AND SOUTHEAST NEW MEXICO...

CITY           SKY/WX    TMP DP  RH WIND       PRES   REMARKS
ALPINE         CLEAR     66  64  93 SW7       30.10F
ANDREWS        CLOUDY    68  66  94 E3        29.99S
ARTESIA        NOT AVBL
BIG SPRING     CLOUDY    74  71  91 SE7       30.00F
CARLSBAD       MOCLDY    69 N/A N/A SW6       29.98S
DRYDEN           N/A     80  71  74 SE13      29.92F
FORT STOCKTON  MOCLDY    71  68  90 S6        29.94F
GUAD PASS      CLEAR     63  63 100 NE8         N/A
HOBBS          CLOUDY    68  68 100 CALM      30.02F
MARFA          CLEAR     61  61 100 N5        30.09F
MIDLAND AIRPK  NOT AVBL
MIDLAND INTL   LGT RAIN  71  69  93 SE10      29.97F
ODESSA         LGT RAIN  71  68  90 SE8       29.98S
PECOS          CLOUDY    70  67  91 N6        29.92F
PRESIDIO       FAIR      74  67  79 N7        29.94S
SEMINOLE       CLOUDY    69  68  98 CALM      30.01S
SNYDER         RAIN      70  69  96 SE6       29.99S
WINK           CLOUDY    72  70  93 NE3       29.93F
$$
...OTHER STATIONS IN TEXAS...

CITY           SKY/WX    TMP DP  RH WIND       PRES   REMARKS
ABILENE        PTCLDY    72  70  93 SE5       29.97F
AMARILLO       CLOUDY    64  63  96 S5        30.06S
AUSTIN         PTCLDY    74  73  97 CALM      29.92F
BROWNSVILLE    CLOUDY    81  79  94 NE3       29.84F
CORPUS CHRISTI MOCLDY    78  75  90 CALM      29.87S
DALLAS FTW     MOCLDY    76  70  82 SE6       29.95S
DEL RIO        LGT RAIN  79  72  79 E12       29.88S
EL PASO        PTCLDY    70  65  84 NE3       30.00S
HOUSTON INT    PTCLDY    74  72  93 NE5       29.92S
LUBBOCK        CLOUDY    69  67  93 SE7       30.02S
SAN ANGELO     MOCLDY    73  70  90 SE3       29.95F
SAN ANTONIO    MOCLDY    76  73  91 SE7       29.93F
WACO           PTCLDY    73  71  93 SE7       29.95S
WICHITA FALLS  NOT AVBL
$$
...OTHER LOCATIONS IN NEW MEXICO...

CITY           SKY/WX    TMP DP  RH WIND       PRES   REMARKS
ALAMAGORDO     CLOUDY    66  63  88 NE3       30.04F
ALBUQUERQUE    CLEAR     67  57  70 CALM      30.12S
CANNON AFB     CLOUDY    64 N/A N/A CALM      30.08F
CLOVIS           N/A     64  63  94 CALM      30.10S
HOLLOMAN AFB   MOCLDY    66  66  99 CALM      30.02F
ROSWELL        CLOUDY    68  67  96 CALM      30.03S
RUIDOSO        CLOUDY    59  57  94 SW6       30.23S
SANTA FE       CLEAR     59  56  89 E3        30.18S
TRUTH OR CONSE CLEAR     65  61  87 NW5       30.06S
TUCUMCARI      MOCLDY    65  60  84 CALM      30.06F
$$

USA.gov is the U.S. government's official web portal to all federal, state and local government web resources and services.